Regional Weather Roundup
Issued by NWS Raleigh/Durham, NC

Home | Current Version | Previous Version | Text Only | Print | Product List | Glossary On
Versions: 1 2 3 4 5 6 7 8 9 10 11 12 13 14 15 16 17 18 19 20 21 22 23 24 25 26 27 28 29 30 31 32 33 34 35 36 37 38 39 40 41 42 43 44 45 46 47 48 49 50
670
ASUS42 KRAH 281310
RWRRAH
NORTH CAROLINA WEATHER ROUNDUP
NATIONAL WEATHER SERVICE RALEIGH NC
900 AM EDT TUE MAR 28 2017

NOTE: "FAIR" INDICATES FEW OR NO CLOUDS BELOW 12,000 FEET WITH NO
SIGNIFICANT WEATHER AND/OR OBSTRUCTIONS TO VISIBILITY.

NCZ001-053-055-056-065-067-281400-
WESTERN NORTH CAROLINA

CITY           SKY/WX    TMP DP  RH WIND       PRES   REMARKS
ASHEVILLE      FOG       53  51  93 CALM      29.97R VSB 1/4
JEFFERSON      MOSUNNY   56  47  71 W12       29.95S
MORGANTON      MOSUNNY   58  58 100 W3        29.98R
HICKORY        CLOUDY    58  57  97 SW7       29.92S
RUTHERFORDTON  CLOUDY    58  58 100 S3        29.95S
MOUNT AIRY     CLOUDY    59  57  95 CALM      29.95S FOG
BOONE          MOSUNNY   53  52  94 W8        29.97R
$$

NCZ021-022-025-041-071-084-088-281400-
CENTRAL NORTH CAROLINA

CITY           SKY/WX    TMP DP  RH WIND       PRES   REMARKS
CHARLOTTE      PTSUNNY   62  59  90 S9        29.95S
GREENSBORO     CLOUDY    60  59  96 SW10      29.93R
WINSTON-SALEM  CLOUDY    60  56  86 VRB7      29.94R
RALEIGH-DURHAM CLOUDY    62  59  90 SW10      29.95R
FORT BRAGG     CLOUDY    63  61  94 SE5       29.95F
FAYETTEVILLE   CLOUDY    63  61  93 S6        29.96F
BURLINGTON     PTSUNNY   62  59  90 S5        29.93R
LAURINBURG     CLOUDY    62  61  96 SW9       29.98S
$$

NCZ011-015-027-028-043-044-047-080-103-281400-
NORTHEASTERN NORTH CAROLINA

CITY           SKY/WX    TMP DP  RH WIND       PRES   REMARKS
ROCKY MT-WILSO CLOUDY    63  59  87 S7        29.95F
GREENVILLE     CLOUDY    68  61  77 SW9       29.98F
WASHINGTON     CLOUDY    64  59  82 SW9       29.98S
ELIZABETH CITY CLOUDY    65  58  78 S9        29.97S
MANTEO         CLOUDY    62  59  88 SW9       29.99S
CAPE HATTERAS  CLOUDY    70  60  70 SW9       30.00S HAZE
$$

NCZ078-087-090-091-093-098-101-281400-
SOUTHEASTERN NORTH CAROLINA

CITY           SKY/WX    TMP DP  RH WIND       PRES   REMARKS
LUMBERTON      CLOUDY    62  61  96 SW8       29.98R
GOLDSBORO      CLOUDY    65  63  93 SW14      29.96S
KINSTON        CLOUDY    66  59  77 SW9       29.98F
KENANSVILLE    MOSUNNY   66  59  77 W8        29.98S
NEW BERN       CLOUDY    67  61  81 SW8       30.00S
CHERRY POINT   NOT AVBL
BEAUFORT       MOSUNNY   67  62  84 SW12      30.00S
JACKSONVILLE   MOSUNNY   68  62  81 SW9       29.98F
WILMINGTON     MOSUNNY   70  60  70 SW13      29.99F
$$





USA.gov is the U.S. government's official web portal to all federal, state and local government web resources and services.